Showing default

LUCAS (JDRS-1), 47202

Orbit data source: Space-Track

LUCAS (JDRS-1), 47202 is a payload satellite owned by CSICE (JP) in GEO that was launched on Sun, 29 Nov 2020 UTC via an H-IIA 202 launch vehicle from the Tanegashima Space Center (TNSTA). Payload-class satellites include a variety of spacecraft equipped with specific instruments for various scientific and technological missions. These include communications satellites like Starlink; space stations such as the ISS; scientific satellites like the Hubble; Earth observation satellites from companies like Planet Labs, Umbra, and HawkEye 360; GPS; miniature CubeSats for education and research; and military/defense satellites.

Not visible in the next 10 days
Identifier
47202, 2020-089A
Orbit
GEO
Country
Flag of JPJP / JPN
Related business
Manufacturer
MELCO
Mission
Operational Defense Communications
Bus & Motor
DS-2000, BT-4 LAPS
Mass
~3,800 kg wet, 1,300 kg dry
Launch date (UTC)
2020-11-29 (6 years ago)
Launch vehicle
H-IIA 202
Launch site
Tanegashima Space Center (TNSTA)
Object type
Payload
Rocket body
Debris
Shape & HBR
Box + 2 Pan, Unknown HBR
Radar Cross Section
17.566 m², Large (>1 m²)

Expand to show TLE details & history
Last TLE update: 2 days ago

TLE from 2 days ago
0 LUCAS (JDRS-1)
1 47202U 20089A   26171.40996537 -.00000239  00000-0  00000+0 0  9998
2 47202   0.0494 274.3402 0002347 151.9999  80.6439  1.00269176 20458
Epoch: 2026-06-20T09:50Z
TLE epoch observation values (Epoch: 2026-06-20T09:50:21.007Z)
Latitude
-0.027°
Longitude
90.81029°
Altitude
35,785.183 km
Speed
3.075 km/s
True Right ascension
09h 48m 05s
True Declination
0° 01' 37"
Sunlit
Object was in daylight at epoch
Visualization orbit readout
Latitude
Unknown
Longitude
Unknown
Altitude
Unknown
Speed
Unknown
Apparent Right ascension
Unknown
Apparent Declination
Unknown
Sunlit
N/A
Visualization observer readout
Local Sidereal Time
21:39:30
Azimuth
Unknown
Elevation
Unknown
Doppler factor
Unknown
Orbital elements
Apogee altitude
35,798.293 km
Perigee altitude
35,778.5 km
Semi-major axis
42,166.534 km
Eccentricity
0.00023
Inclination
0.0494°
RAAN
274.3402°
Arg. of periapsis
151.9999°
True anomaly
80.67044°
Mean anomaly
80.6439°
Eccentric anomaly
80.65717°
Mean motion
0.25066 °/min
Orbital period
1,436.19 mins
BSTAR
0
Loading maneuver chart data...
Computing Atmospheric mass density...
Loading historical data...
Loading historical data...
Loading historical data...
Loading historical data...
Loading historical data...
Loading historical data...
Loading historical data...
Other satellites on launch #89 in the year 2020 (2020-11-29 UTC)

Documentation

Showing up to 5 results
|